Find Kosmos-416

NORAD ID: 5215 Int'l Des: 1971-041 Owner: OKB10 Country: SU operational
LEOCIRCULAR

实时位置

正在加载3D地球...

关于 Kosmos-416

正在加载描述...

即将过境

Passes for default location (London). Set your location on the main map for personalized predictions.

高度历史

Loading altitude history...

两行轨道根数

1 05215U 71041F 26104.98875692 -.00000010 00000-0 36623-4 0 9999
2 05215 74.0188 0.8939 0077069 130.0565 241.9236 12.58070450522841
Epoch: Apr 14, 2026 • Age: 6 hours

当前状态

高度 1479.7 km
速度 7.10 km/s
星下点 -8.54°S, 74.51°E
类型 other

Most Searched